SCP
0 0 0 0 0 0 0 0 0 0 0 0 0 0 0 0 0 0 0 0 0 0
0 0 0 0 0 0 0 0 0 0 0 0 0 0 0 0 0 0 0 0 0 0
0 0 0 0 0 0 0 0 0 0 0 0 0 0 0 0 0 0 0 0 0 0
0 0 0 0 0 0 0 0 0 0 0 0 0 0 0 0 0 0 0 0 0 0
0 0 0 0 0 0 0 0 0 0 0 0 0 0 0 0 0 0 0 0 0 0
0 0 0 0 0 0 0 0 0 0 0 0 0 0 0 0 0 0 0 0 0 0
0 0 0 0 0 0 0 0 0 0 0 0 0 0 0 0 0 0 0 0 0 0
0 0 0 0 0 0 0 0 0 0 0 0 0 0 0 0 0 0 0 0 0 0
0 0 0 0 0 0 0 0 0 0 0 0 0 0 0 0 0 0 0 0 0 0
0 0 0 0 0 0 0 0 0 0 0 0 0 0 0 0 0 0 0 0 0 0
0 0 0 0 0 0 0 0 0 0 0 0 0 0 0 0 0 0 0 0 0 0
0 0 0 0 0 0 0 0 0 0 0 0 0 0 0 0 0 0 0 0 0 0
0 0 0 0 0 0 0 0 0 0 0 0 0 0 0 0 0 0 0 0 0 0
0 0 0 0 0 0 0 0 0 0 0 0 0 0 0 0 0 0 0 0 0 0
Wind_Speed_500mb
75 74 71 63 57 50 42 35 33 30 30 29 27 26 27 27 31 37 42 48 55 61
76 76 73 65 60 54 48 40 36 33 33 31 29 28 28 30 33 39 45 51 57 61
73 74 70 67 63 59 52 45 40 37 35 33 30 30 30 31 35 40 46 52 58 59
70 71 71 69 64 62 57 49 43 40 38 34 33 32 31 32 36 41 47 53 58 58
64 67 72 71 67 65 59 51 46 43 40 37 36 34 32 33 35 40 48 54 57 57
62 67 72 71 68 66 60 55 50 46 42 39 37 35 33 33 33 40 47 52 55 57
63 68 70 69 69 68 62 58 52 48 43 41 40 36 32 32 33 38 44 50 53 55
60 65 69 70 71 66 64 58 53 50 47 44 41 36 32 31 33 37 42 48 51 54
60 66 70 71 71 67 66 61 58 54 49 46 41 37 32 31 31 36 44 48 49 52
67 67 70 72 71 72 69 63 61 55 51 46 43 38 33 31 31 34 43 49 51 52
74 71 71 74 74 74 70 67 62 56 51 47 45 39 34 31 31 32 40 47 50 54
83 79 75 78 78 76 71 68 64 57 52 49 46 41 35 33 30 30 37 43 47 51
91 84 79 80 78 74 72 67 61 57 54 50 46 43 38 35 29 29 34 38 42 45
84 79 77 77 74 71 68 66 62 59 56 53 48 46 41 36 31 29 31 35 37 40
Wind_Direction_500mb
228 228 231 235 237 241 248 259 267 269 273 272 270 269 274 289 301 310 318 321 320 321
228 229 232 235 239 241 246 255 265 266 268 266 264 263 271 285 299 309 316 320 323 322
232 232 234 236 240 243 246 253 262 263 263 262 259 259 269 285 299 308 316 322 324 326
233 234 234 238 241 243 246 251 259 259 259 258 254 257 269 284 296 309 319 324 326 330
235 234 235 239 242 243 246 250 255 255 254 253 251 255 267 282 297 312 321 326 329 331
235 234 237 240 242 243 244 248 251 250 251 250 249 254 266 282 300 314 321 328 331 332
238 239 240 242 241 241 242 245 247 247 248 247 247 252 265 282 299 313 323 329 330 334
246 246 243 241 238 238 239 242 243 242 243 244 244 251 264 281 297 313 324 329 333 337
248 247 243 239 235 236 237 238 238 239 241 241 242 249 259 274 295 313 322 330 336 337
248 247 243 238 234 235 236 236 235 237 238 238 239 246 258 275 294 309 321 328 337 339
248 246 241 236 234 235 235 234 233 236 236 235 238 245 255 271 285 307 320 328 337 338
252 247 239 235 233 233 232 229 230 233 234 236 237 243 250 262 279 303 316 327 334 337
252 245 240 237 233 232 229 227 230 232 234 235 234 242 247 258 272 293 310 324 330 335
249 242 240 236 232 230 225 225 227 230 232 235 235 239 245 253 265 282 301 317 329 334
Wind_Speed_850mb
75 74 71 63 57 50 42 35 33 30 30 29 27 26 27 27 31 37 42 48 55 61
76 76 73 65 60 54 48 40 36 33 33 31 29 28 28 30 33 39 45 51 57 61
73 74 70 67 63 59 52 45 40 37 35 33 30 30 30 31 35 40 46 52 58 59
70 71 71 69 64 62 57 49 43 40 38 34 33 32 31 32 36 41 47 53 58 58
64 67 72 71 67 65 59 51 46 43 40 37 36 34 32 33 35 40 48 54 57 57
62 67 72 71 68 66 60 55 50 46 42 39 37 35 33 33 33 40 47 52 55 57
63 68 70 69 69 68 62 58 52 48 43 41 40 36 32 32 33 38 44 50 53 55
60 65 69 70 71 66 64 58 53 50 47 44 41 36 32 31 33 37 42 48 51 54
60 66 70 71 71 67 66 61 58 54 49 46 41 37 32 31 31 36 44 48 49 52
67 67 70 72 71 72 69 63 61 55 51 46 43 38 33 31 31 34 43 49 51 52
74 71 71 74 74 74 70 67 62 56 51 47 45 39 34 31 31 32 40 47 50 54
83 79 75 78 78 76 71 68 64 57 52 49 46 41 35 33 30 30 37 43 47 51
91 84 79 80 78 74 72 67 61 57 54 50 46 43 38 35 29 29 34 38 42 45
84 79 77 77 74 71 68 66 62 59 56 53 48 46 41 36 31 29 31 35 37 40
Wind_Direction_850mb
228 228 231 235 237 241 248 259 267 269 273 272 270 269 274 289 301 310 318 321 320 321
228 229 232 235 239 241 246 255 265 266 268 266 264 263 271 285 299 309 316 320 323 322
232 232 234 236 240 243 246 253 262 263 263 262 259 259 269 285 299 308 316 322 324 326
233 234 234 238 241 243 246 251 259 259 259 258 254 257 269 284 296 309 319 324 326 330
235 234 235 239 242 243 246 250 255 255 254 253 251 255 267 282 297 312 321 326 329 331
235 234 237 240 242 243 244 248 251 250 251 250 249 254 266 282 300 314 321 328 331 332
238 239 240 242 241 241 242 245 247 247 248 247 247 252 265 282 299 313 323 329 330 334
246 246 243 241 238 238 239 242 243 242 243 244 244 251 264 281 297 313 324 329 333 337
248 247 243 239 235 236 237 238 238 239 241 241 242 249 259 274 295 313 322 330 336 337
248 247 243 238 234 235 236 236 235 237 238 238 239 246 258 275 294 309 321 328 337 339
248 246 241 236 234 235 235 234 233 236 236 235 238 245 255 271 285 307 320 328 337 338
252 247 239 235 233 233 232 229 230 233 234 236 237 243 250 262 279 303 316 327 334 337
252 245 240 237 233 232 229 227 230 232 234 235 234 242 247 258 272 293 310 324 330 335
249 242 240 236 232 230 225 225 227 230 232 235 235 239 245 253 265 282 301 317 329 334